Simultaneous Nadir Overpasses (SNOs) Predictions

Prediction of SNOs between GOES-17 and NOAA-19 Satellite Orbit:

Table of predicted SNOs for the next 14.0 days since TLE Epoch: 4/24/2020
Index Date Time (GOES-17) GOES-17 Lat,Lon NOAA-19 Lat,Lon Distance(km) Time Diff (sec)
1 04/26/2020 15:09:21 0.02,-137.19 0.74,-140.34 359.47 80
2 04/27/2020 14:57:41 0.01,-137.18 0.08,-137.49 34.95 80
3 04/28/2020 14:43:20 0.01,-137.17 -0.58,-134.63 289.37 80
4 05/01/2020 03:07:03 -0.01,-137.12 -0.58,-139.61 283.91 80
5 05/02/2020 02:55:23 -0.01,-137.10 0.06,-136.75 39.81 80
6 05/03/2020 02:43:42 -0.01,-137.09 0.70,-133.90 363.39 80
7 05/05/2020 15:02:01 0.01,-137.05 0.46,-138.86 206.79 80
8 05/06/2020 14:53:01 0.01,-137.03 -0.21,-136.00 116.53 80
9 05/07/2020 14:41:20 0.01,-137.01 -0.87,-133.15 439.58 80




NCC Satellite Simultaneous Nadir Overpasses (SNOs) Prediction Service
